FW6138 Weather Reports


Display with metric or nautical units.
time (UTC)temp
F
wind
direction
speed
MPH
gust
MPH
rain 1hr
in
rain 24hr
in
rain mn
in
humidity
%
barometer
mb
20260831080029 49 180 0.0 0.0 0.00 0.00 0.00 92 1017.3
20260831074533 49 180 0.0 2.0 0.00 0.00 0.00 92 1017.3
20260831073030 50 180 0.0 3.0 0.00 0.00 0.00 92 1017.3
20260831071531 50 180 0.0 2.0 0.00 0.00 0.00 92 1017.4
20260831070030 51 182 0.0 3.0 0.00 0.00 0.00 92 1017.4
20260831063031 51 152 0.0 3.0 0.00 0.00 0.00 91 1017.5
20260831061529 51 135 0.0 3.0 0.00 0.00 0.00 90 1017.6
20260831060032 52 135 1.0 3.0 0.00 0.00 0.00 90 1017.6
20260831054530 53 135 0.0 2.0 0.00 0.00 0.00 89 1017.7
20260831053034 53 147 1.0 3.0 0.00 0.00 0.00 88 1017.7
20260831050030 55 180 0.0 0.0 0.00 0.00 0.00 86 1017.7
20260831044531 55 184 1.0 3.0 0.00 0.00 0.00 86 1017.7
20260831043029 55 183 1.0 4.0 0.00 0.00 0.00 85 1017.6
20260831041531 56 185 1.0 3.0 0.00 0.00 0.00 83 1017.7
20260831040032 57 178 0.0 4.0 0.00 0.00 0.00 81 1017.6
20260831034528 58 157 2.0 4.0 0.00 0.00 0.00 80 1017.3
20260831033029 59 157 3.0 4.0 0.00 0.00 0.00 78 1017.1
20260831031532 60 181 1.0 4.0 0.00 0.00 0.00 76 1017.0
20260831030109 61 286 0.0 5.0 0.00 0.00 0.00 73 1017.0
20260831024530 64 286 0.0 2.0 0.00 0.00 0.00 67 1016.9
20260831023102 65 229 1.0 6.0 0.00 0.00 0.00 66 1016.9
20260831021532 69 219 0.0 3.0 0.00 0.00 0.00 57 1016.9
20260831020034 70 234 1.0 6.0 0.00 0.00 0.00 54 1016.8
20260831014530 71 236 1.0 8.0 0.00 0.00 0.00 49 1016.8
20260831013029 72 270 3.0 9.0 0.00 0.00 0.00 47 1016.9
20260831010036 74 287 5.0 12.0 0.00 0.00 0.00 45 1016.9
20260831003035 74 294 6.0 15.0 0.00 0.00 0.00 44 1017.0
20260831001529 74 293 7.0 15.0 0.00 0.00 0.00 43 1017.0
20260831000037 74 293 6.0 15.0 0.00 0.00 0.00 43 1017.0
20260830234532 74 295 6.0 13.0 0.00 0.00 0.00 43 1017.2
20260830233030 74 298 7.0 16.0 0.00 0.00 0.00 43 1017.4
20260830231538 74 299 6.0 13.0 0.00 0.00 0.00 43 1017.5
20260830230028 73 296 6.0 14.0 0.00 0.00 0.00 42 1017.7
20260830224533 74 299 7.0 17.0 0.00 0.00 0.00 43 1018.0
20260830223030 73 305 6.0 15.0 0.00 0.00 0.00 45 1018.2
20260830221537 73 304 7.0 15.0 0.00 0.00 0.00 46 1018.5
20260830220037 72 303 7.0 20.0 0.00 0.00 0.00 47 1018.6
20260830214531 72 304 7.0 16.0 0.00 0.00 0.00 47 1018.9
20260830211537 71 299 8.0 16.0 0.00 0.00 0.00 48 1019.1
20260830210030 71 299 7.0 17.0 0.00 0.00 0.00 50 1019.2
20260830204533 70 297 6.0 14.0 0.00 0.00 0.00 51 1019.5
20260830203036 70 299 6.0 17.0 0.00 0.00 0.00 52 1019.7
20260830201531 69 309 6.0 14.0 0.00 0.00 0.00 53 1019.8
20260830194530 67 308 5.0 12.0 0.00 0.00 0.00 57 1020.1
20260830193037 67 309 6.0 12.0 0.00 0.00 0.00 55 1020.3
20260830191535 67 312 6.0 13.0 0.00 0.00 0.00 56 1020.5
20260830190031 66 299 5.0 16.0 0.00 0.00 0.00 56 1020.7
20260830184535 66 310 6.0 14.0 0.00 0.00 0.00 58 1020.9
20260830180030 64 323 6.0 12.0 0.00 0.00 0.00 60 1021.1
20260830174529 64 316 4.0 11.0 0.00 0.00 0.00 62 1021.2
20260830173031 63 316 6.0 11.0 0.00 0.00 0.00 63 1021.3
20260830171529 63 316 5.0 13.0 0.00 0.00 0.00 64 1021.3
20260830170029 63 307 5.0 12.0 0.00 0.00 0.00 67 1021.4
20260830163030 61 45 1.0 3.0 0.00 0.00 0.00 77 1021.8
20260830160105 56 88 2.0 4.0 0.00 0.00 0.00 86 1022.3
20260830154534 52 136 1.0 3.0 0.00 0.00 0.00 94 1022.5
20260830150028 48 165 0.0 0.0 0.00 0.00 0.00 96 1022.6
20260830144538 46 168 0.0 2.0 0.00 0.00 0.00 95 1022.7
20260830143031 44 157 0.0 0.0 0.00 0.00 0.00 95 1022.6
20260830141539 43 157 0.0 0.0 0.00 0.00 0.00 95 1022.6
20260830140037 43 157 1.0 4.0 0.00 0.00 0.00 95 1022.4
20260830134534 43 157 2.0 3.0 0.00 0.00 0.00 94 1022.3
20260830133039 43 231 0.0 4.0 0.00 0.00 0.00 94 1022.1
20260830131531 43 247 0.0 0.0 0.00 0.00 0.00 94 1021.9
20260830130112 43 247 0.0 0.0 0.00 0.00 0.00 94 1021.8
20260830124530 43 247 0.0 1.0 0.00 0.00 0.00 94 1021.9
20260830123109 43 247 0.0 0.0 0.00 0.00 0.00 93 1021.9
20260830121537 43 247 0.0 0.0 0.00 0.00 0.00 93 1021.8
20260830114610 44 202 0.0 3.0 0.00 0.00 0.00 93 1021.7
20260830111606 44 157 0.0 1.0 0.00 0.00 0.00 92 1021.7
20260830110032 45 173 0.0 4.0 0.00 0.00 0.00 92 1021.7
20260830104531 45 157 1.0 4.0 0.00 0.00 0.00 91 1021.7
20260830103030 45 150 1.0 4.0 0.00 0.00 0.00 90 1021.7
20260830101532 46 157 1.0 3.0 0.00 0.00 0.00 89 1021.7
20260830100031 47 114 0.0 2.0 0.00 0.00 0.00 88 1021.7
20260830094529 48 99 1.0 4.0 0.00 0.00 0.00 88 1021.6
20260830091615 47 231 1.0 3.0 0.00 0.00 0.00 89 1021.6
20260830084531 47 214 0.0 4.0 0.00 0.00 0.00 89 1021.6
20260830083031 47 182 1.0 4.0 0.00 0.00 0.00 88 1021.7
20260830081607 48 158 1.0 3.0 0.00 0.00 0.00 87 1021.7